Theta_e
345 344 339 339 340 341 341 339 340 340 338 339 340 340 341 342 342 344 345 344 345 340 331 337 343 343 341 340 342 342 342 343 338 343 342 340 335 335 340 344 347 345 337
345 345 338 338 339 340 341 342 340 342 340 338 339 340 343 340 341 342 339 332 330 332 344 338 339 341 342 340 340 339 336 338 339 339 344 341 340 341 336 340 341 340 338
346 345 340 338 338 339 341 342 343 343 341 339 340 340 342 336 339 334 337 336 337 343 338 342 343 340 339 340 338 335 335 333 336 344 347 346 344 339 339 337 339 338 337
346 346 346 338 338 338 341 343 343 344 340 340 340 341 337 337 334 336 344 343 344 344 344 344 340 338 335 334 333 329 329 331 331 344 346 347 346 342 333 335 334 334 336
346 347 342 337 338 338 341 343 341 340 339 336 340 336 340 340 337 342 343 342 342 343 342 340 341 337 334 331 326 326 325 325 331 342 343 344 346 341 330 337 339 337 341
347 347 339 338 337 338 340 343 341 338 338 338 338 341 341 341 343 340 341 341 341 340 341 340 337 335 333 326 320 319 321 327 340 339 341 338 340 326 326 332 340 339 335
348 348 342 337 338 338 341 339 338 338 339 336 341 342 343 343 338 335 339 339 341 343 339 338 339 338 332 327 319 316 317 329 338 340 340 340 331 331 330 330 330 330 330
348 347 343 332 337 338 340 340 338 337 337 338 339 341 338 336 334 336 335 336 340 340 341 342 342 339 335 328 321 318 318 332 333 334 335 337 325 332 335 336 332 334 335
348 346 345 345 339 338 338 339 337 337 338 339 339 336 335 339 339 333 329 330 340 341 342 343 342 341 339 333 327 323 323 330 333 334 331 328 313 312 312 311 311 312 314
346 345 343 346 347 348 345 338 339 342 341 341 338 339 342 340 332 331 328 336 340 341 343 343 344 344 343 341 338 331 332 334 335 334 330 322 320 318 316 315 314 313 312
345 344 345 345 348 350 353 339 340 338 337 340 341 344 348 348 347 348 340 339 340 342 343 344 344 345 346 345 343 342 339 337 335 335 331 328 327 326 325 324 323 322 321
346 345 346 346 348 349 348 347 348 346 349 351 348 350 349 349 347 347 340 338 339 342 343 344 346 348 348 346 348 348 343 341 338 336 331 330 330 330 330 330 329 329 328
346 344 346 346 348 345 348 348 348 348 349 350 345 349 348 349 347 347 346 344 347 345 347 348 349 349 350 348 347 347 348 343 342 342 340 339 337 334 332 331 331 332 332
345 345 346 346 346 346 346 347 348 349 348 347 349 345 346 347 344 347 347 347 346 347 347 350 349 351 351 350 349 348 348 345 343 344 343 343 342 342 341 340 337 334 333
345 346 346 346 346 347 347 347 348 347 347 348 348 339 346 347 346 346 344 347 347 348 349 350 350 350 351 348 347 348 347 346 346 344 346 344 344 344 343 344 343 342 340
344 345 346 347 347 347 346 347 348 348 347 346 345 346 338 347 344 346 344 347 347 349 349 350 345 349 350 348 348 348 349 348 348 348 346 347 345 345 344 344 344 343 343
344 344 346 346 346 346 346 347 347 348 346 344 343 336 337 341 336 348 348 347 348 346 344 349 349 349 349 347 348 348 348 349 348 349 349 348 348 345 346 345 344 343 342
343 344 346 345 345 346 346 346 346 346 345 344 344 346 335 337 338 344 348 347 350 348 347 348 349 350 349 348 348 349 349 349 349 346 348 348 348 348 348 342 343 342 341
342 344 345 345 345 346 346 345 345 345 344 345 345 347 342 342 344 349 348 348 343 347 347 348 350 352 350 349 346 347 348 349 349 348 346 343 343 344 347 346 340 339 340
341 343 345 345 345 345 346 344 347 347 347 346 346 347 347 345 336 343 348 348 345 347 347 351 349 352 351 351 347 347 348 348 348 348 347 346 346 343 347 342 345 350 344
344 344 346 348 346 345 346 347 349 350 349 348 347 348 347 344 344 343 348 348 347 344 348 347 353 352 350 350 348 346 348 347 346 345 344 345 347 346 342 341 341 350 350
347 347 347 348 349 342 349 349 350 350 349 349 348 348 345 341 345 348 348 346 347 346 342 347 347 351 350 351 350 347 346 347 345 346 346 346 346 345 344 346 340 339 341
346 349 348 344 349 344 349 349 350 350 351 350 350 349 346 342 341 344 348 347 350 344 347 347 350 348 350 351 346 351 348 347 347 345 344 345 340 344 343 342 341 339 331
346 347 349 344 344 346 345 350 351 349 349 349 349 349 348 345 343 347 349 351 348 346 349 351 349 348 348 347 350 351 348 349 348 347 346 346 343 340 341 339 340 346 341
346 347 349 348 344 346 346 348 351 350 349 349 349 349 350 348 344 347 351 351 348 349 352 351 350 347 351 349 347 349 352 351 351 350 349 347 347 343 338 336 341 344 351
345 346 348 350 342 343 344 345 350 352 352 349 349 349 349 348 346 347 350 346 343 350 351 350 345 346 348 349 348 348 347 349 349 348 347 347 346 344 340 336 335 339 345
Wind_Speed
11 11 15 15 15 16 15 16 13 12 15 18 17 16 18 21 19 18 18 18 18 19 20 21 22 21 19 18 17 17 16 16 15 16 16 15 14 14 16 18 14 12 13
14 11 14 16 14 13 13 13 14 14 17 17 15 15 19 17 18 17 16 17 18 19 19 20 21 19 18 17 16 15 13 14 15 17 18 14 14 13 13 13 10 12 12
13 11 12 13 14 14 13 12 14 15 20 19 15 18 18 17 16 16 18 19 19 18 19 19 18 17 16 15 15 14 14 13 16 21 19 9 11 11 11 10 10 10 9
14 12 10 13 13 13 12 13 16 20 23 19 17 16 16 16 15 18 18 19 17 16 15 16 17 18 17 15 14 13 14 13 13 18 11 10 9 11 10 9 8 8 9
13 12 11 12 12 13 15 17 26 26 21 20 21 16 16 16 16 15 16 16 15 16 16 17 18 17 16 16 14 13 12 12 15 12 10 12 7 7 8 10 8 8 10
13 11 12 12 12 14 19 24 24 24 24 25 17 16 15 15 14 14 15 14 14 15 16 18 18 18 18 17 16 15 13 14 14 10 11 10 8 8 7 7 6 5 6
13 11 12 12 12 14 17 20 22 21 22 27 16 14 13 13 13 12 12 13 13 15 17 19 18 17 19 18 18 16 15 18 10 11 12 10 10 10 8 8 6 5 4
13 13 10 12 12 13 16 17 17 16 16 14 11 11 10 10 10 10 11 12 14 16 16 17 18 19 20 20 20 19 17 19 12 12 12 10 11 11 9 8 7 7 6
14 12 11 9 11 11 13 14 14 13 14 12 10 9 10 9 9 9 9 13 14 16 15 16 18 18 20 20 20 19 18 21 13 13 12 9 13 11 9 8 8 7 6
12 11 11 9 8 9 9 12 14 13 12 10 10 10 10 8 10 11 12 16 16 14 14 16 16 17 18 19 19 18 20 20 12 13 12 15 15 15 15 14 13 11 10
12 10 10 9 10 10 10 11 11 9 8 7 8 9 12 8 7 8 12 17 15 13 14 14 15 16 17 18 17 19 18 12 12 13 11 14 16 17 16 14 14 13 13
13 11 11 10 11 10 9 9 8 8 7 7 7 8 8 8 9 8 14 15 12 11 12 13 15 17 14 8 7 14 10 12 11 12 13 14 16 16 15 14 14 13 13
13 12 12 12 12 10 10 10 8 7 7 5 6 8 7 7 6 7 8 7 6 8 6 9 10 9 11 9 8 7 8 9 9 10 13 14 14 14 13 13 12 12 12
13 12 12 12 12 11 9 10 9 9 8 6 6 6 5 6 6 8 7 7 6 4 7 8 8 10 9 10 9 7 6 6 6 7 9 11 11 11 11 11 10 10 11
14 13 13 13 13 11 12 10 11 9 8 8 6 7 6 7 7 7 8 6 5 3 4 6 7 9 10 9 8 8 6 5 5 6 5 9 9 9 9 9 8 8 8
15 15 14 13 12 11 11 10 10 9 9 7 6 6 9 7 8 7 7 4 2 2 3 5 8 8 8 6 6 6 6 5 5 5 4 6 8 8 8 8 8 7 7
15 15 15 15 13 13 12 10 10 9 8 7 7 10 11 10 11 10 6 4 2 0 2 6 8 6 5 5 5 5 5 4 3 5 4 4 7 8 8 8 7 7 6
16 17 16 14 14 14 13 12 10 9 9 8 8 8 12 13 14 11 6 4 2 0 1 4 5 4 4 4 4 4 3 4 5 5 5 5 6 5 9 8 8 7 6
17 17 17 16 15 15 14 12 11 11 10 9 9 9 12 13 12 11 7 5 4 1 1 2 4 4 4 4 4 5 4 4 4 4 6 7 7 6 6 9 6 6 5
17 18 17 16 16 16 13 14 11 11 11 11 11 11 12 11 16 17 8 6 4 3 1 1 3 4 5 6 5 5 3 3 3 4 5 4 4 5 4 6 7 8 6
17 19 19 19 18 18 16 14 13 12 12 13 13 13 14 14 15 20 10 7 5 5 5 1 3 5 3 6 5 5 4 3 2 3 3 3 4 6 7 8 9 9 9
21 21 21 20 19 20 17 16 15 13 12 13 14 14 16 17 17 17 14 9 8 8 6 3 2 2 4 6 5 5 4 3 1 4 4 4 5 7 8 8 12 12 12
25 24 24 23 21 21 18 16 16 12 13 14 15 16 18 19 20 21 15 12 11 11 8 7 4 3 4 6 6 3 4 4 9 3 4 4 7 7 9 11 13 16 16
27 25 25 26 25 23 23 18 19 17 16 15 15 16 17 20 20 18 15 13 13 12 12 8 7 5 6 5 5 3 3 4 5 7 6 8 8 11 12 11 12 11 12
28 28 27 27 29 26 26 24 20 19 16 15 15 16 18 19 21 19 17 15 15 13 11 12 8 6 7 6 6 6 6 6 8 7 12 12 13 11 10 12 11 7 9
30 30 29 30 32 31 30 28 26 22 18 17 17 18 17 19 21 24 21 19 19 14 13 11 15 11 10 9 7 8 8 9 10 12 14 16 17 14 14 12 11 11 10
Wind_Direction
142 131 115 112 117 126 137 148 142 131 134 128 114 106 100 101 102 95 96 100 99 95 93 88 85 82 79 79 82 80 81 81 81 81 79 85 87 89 95 90 76 89 91
138 135 118 116 114 123 133 145 146 138 141 136 118 109 105 97 100 91 91 94 94 93 91 90 86 83 76 69 72 74 78 80 79 80 65 58 78 81 90 101 106 85 88
135 136 122 112 107 103 117 131 142 145 141 139 117 113 109 93 92 92 93 93 93 91 90 87 78 73 70 68 67 69 72 78 82 83 82 84 77 80 78 82 82 83 88
137 136 130 119 110 100 105 118 133 134 131 132 123 116 99 95 99 102 95 93 89 88 85 82 78 71 67 65 64 64 68 74 82 84 85 85 74 73 69 73 74 78 75
135 131 138 130 119 103 95 108 122 123 124 122 120 109 105 105 102 100 97 96 88 84 86 83 73 67 64 59 59 62 70 73 73 66 76 88 60 68 52 70 58 72 106
137 131 130 132 127 114 103 114 119 114 110 126 106 108 107 107 100 97 102 96 90 87 85 77 70 64 60 57 57 60 70 79 73 73 74 62 82 68 67 88 95 88 74
133 132 124 127 132 126 119 119 120 116 108 126 108 106 106 104 105 110 109 100 96 92 84 75 66 61 60 55 58 63 71 79 74 73 67 73 73 71 73 75 74 72 81
139 130 124 127 128 139 129 128 125 124 119 133 121 112 108 109 109 107 108 106 101 97 83 74 64 59 60 59 61 61 66 82 68 73 75 70 82 86 83 84 79 72 74
143 141 130 128 135 140 140 137 132 126 123 128 122 121 114 112 105 102 107 111 112 99 85 72 64 61 61 61 62 63 67 77 68 76 67 67 75 78 80 80 79 79 77
146 146 141 139 137 127 136 148 142 132 129 126 126 119 110 100 101 93 98 116 113 103 85 71 61 55 56 56 58 62 64 60 73 65 67 71 74 73 71 68 69 73 74
153 156 146 147 141 148 139 161 154 147 135 127 120 115 84 97 93 95 125 121 118 100 79 66 55 51 54 49 55 59 59 71 65 70 65 69 71 69 68 67 66 65 65
162 162 151 156 158 148 148 142 158 150 130 154 154 134 114 128 144 129 119 127 116 93 69 59 50 42 50 59 36 43 65 65 68 69 62 66 68 69 68 66 64 63 63
170 166 162 163 158 157 165 151 156 157 168 175 161 127 149 125 117 122 122 124 104 76 72 48 44 54 45 62 57 66 60 64 68 71 58 59 62 63 63 63 62 62 62
176 172 169 169 164 164 168 155 169 168 168 163 185 173 153 123 137 128 135 129 101 83 63 46 47 35 41 41 50 60 56 73 65 70 45 55 55 55 55 55 54 53 54
182 179 178 176 170 174 168 177 167 171 165 181 173 179 154 151 151 133 148 131 125 72 45 35 27 29 40 46 50 50 58 57 59 64 47 46 46 44 42 43 40 39 43
186 186 187 183 180 178 174 182 174 175 189 170 174 178 175 151 158 156 152 141 124 70 34 21 20 24 35 49 34 34 52 46 42 41 37 4 25 24 24 23 21 23 26
190 189 191 187 187 186 186 187 185 194 185 186 180 190 181 164 176 157 167 153 144 100 24 8 23 14 30 32 21 11 29 20 23 2 4 345 328 352 357 358 359 359 1
189 192 191 192 196 195 195 196 195 202 193 192 190 189 194 189 178 172 173 180 200 37 348 358 5 21 13 14 349 354 353 351 341 357 348 332 312 312 317 344 340 341 345
192 195 193 195 197 199 202 201 202 209 196 202 200 198 210 196 192 175 184 207 194 228 258 359 1 359 355 359 346 329 331 333 331 322 326 336 327 320 308 312 341 338 345
192 195 195 196 195 198 199 200 203 208 208 208 209 205 211 201 203 195 200 200 209 234 226 301 356 351 360 344 335 321 313 328 324 327 327 343 328 5 346 350 339 331 347
195 194 199 199 198 197 199 202 203 205 209 210 211 210 207 202 203 201 200 216 228 213 215 307 341 337 346 339 342 319 285 318 346 355 3 348 335 340 320 326 328 313 310
201 201 203 205 204 204 203 205 207 211 211 211 211 215 207 208 201 201 201 210 217 215 229 250 330 278 324 337 347 310 296 244 343 302 305 317 314 330 327 319 312 317 315
205 205 207 210 208 209 200 206 211 211 204 211 209 212 212 211 209 204 214 209 223 211 224 237 276 282 284 318 343 10 314 337 326 314 329 335 327 328 317 313 314 307 310
207 209 209 213 215 214 213 206 206 206 208 211 207 208 209 211 211 212 214 219 221 216 225 236 266 254 291 295 312 319 324 314 323 309 304 318 346 327 314 320 318 325 323
212 211 210 214 217 214 218 209 213 206 215 214 207 208 203 216 211 211 215 220 221 218 230 225 249 264 269 274 284 281 286 296 301 298 302 303 309 311 309 315 309 307 309
217 215 214 213 219 219 221 221 214 213 207 210 208 210 211 212 217 219 220 224 222 219 230 239 251 269 256 245 263 272 276 277 281 289 295 298 305 310 309 312 304 294 291